BEIDOU-3 M22

Last updated on Tue Sep 16 2025 00:02:34 GMT+0000 (Coordinated Universal Time)

1 44793U 19078A 25258.16267612 -.00000052 00000+0 00000+0 0 9991 2 44793 54.1853 309.4943 0004482 29.8556 330.2330 1.86232065 39526
UTC large
Height (km)
Speed (km/s)
/
Latitude / Longitude
Inclination (degrees)
Orbital Period (minutes)
Azimuth
Elevation
Range (km)
Doppler Factor

Next 0 passes for location: London (51.5072 / 0.1276)

Sorry there are no passes over London.